• In Russia
  • List of Countries
  • For 7 days
  • Water Temperature
  • Satellite Maps
  • Weather Map
  • Weather Widgets
  • user-avatar
    Login

    Hourly Weather Solden

    Today, 26 May, Saturday

    Time Temperature Precipitation Wind Pressure Humidity
    00:00 +5°C° 0.1 mm 1 mps 584 mmHg 89%
    01:00 +5°C° 0 mm 1 mps 585 mmHg 88%
    02:00 +5°C° 0 mm 1 mps 585 mmHg 89%
    03:00 +5°C° 0 mm 1 mps 585 mmHg 89%
    04:00 +4°C° 0 mm 1 mps 585 mmHg 89%
    05:00 +6°C° 0 mm 1 mps 586 mmHg 84%
    06:00 +8°C° 0 mm 1 mps 587 mmHg 79%
    07:00 +10°C° 0 mm 1 mps 588 mmHg 72%
    08:00 +12°C° 0 mm 1 mps 588 mmHg 64%
    09:00 +13°C° 0 mm 1 mps 589 mmHg 56%
    10:00 +15°C° 0 mm 1 mps 590 mmHg 48%
    11:00 +15°C° 0.3 mm 1 mps 590 mmHg 48%
    12:00 +16°C° 0.3 mm 1 mps 590 mmHg 47%
    13:00 +16°C° 0.3 mm 1 mps 591 mmHg 46%
    14:00 +16°C° 0.6 mm 1 mps 590 mmHg 49%
    15:00 +15°C° 0.6 mm 1 mps 590 mmHg 52%
    16:00 +15°C° 0.6 mm 1 mps 589 mmHg 55%
    17:00 +13°C° 0.6 mm 1 mps 589 mmHg 63%
    18:00 +12°C° 0.6 mm 1 mps 588 mmHg 71%
    19:00 +11°C° 0.6 mm 1 mps 588 mmHg 79%
    20:00 +10°C° 0.5 mm 1 mps 588 mmHg 81%
    21:00 +8°C° 0.5 mm 1 mps 587 mmHg 83%
    22:00 +6°C° 0.5 mm 0 mps 587 mmHg 85%
    23:00 +7°C° 0.2 mm 1 mps 587 mmHg 85%

    Tomorrow, 27 May, Sunday

    Time Temperature Precipitation Wind Pressure Humidity
    00:00 +7°C° 0.2 mm 1 mps 587 mmHg 85%
    01:00 +6°C° 0.2 mm 1 mps 586 mmHg 85%
    02:00 +6°C° 0.1 mm 1 mps 586 mmHg 85%
    03:00 +6°C° 0.1 mm 1 mps 586 mmHg 85%
    04:00 +6°C° 0.1 mm 1 mps 586 mmHg 85%
    05:00 +7°C° 0.1 mm 1 mps 586 mmHg 81%
    06:00 +9°C° 0.1 mm 1 mps 587 mmHg 77%
    07:00 +10°C° 0.1 mm 1 mps 588 mmHg 73%
    08:00 +12°C° 0.1 mm 1 mps 588 mmHg 66%
    09:00 +12°C° 0.1 mm 0 mps 589 mmHg 59%
    10:00 +14°C° 0.1 mm 0 mps 590 mmHg 52%
    11:00 +15°C° 0.6 mm 1 mps 590 mmHg 50%
    12:00 +16°C° 0.6 mm 1 mps 590 mmHg 48%
    13:00 +18°C° 0.6 mm 1 mps 590 mmHg 47%
    14:00 +16°C° 0.8 mm 1 mps 590 mmHg 50%
    15:00 +15°C° 0.8 mm 1 mps 589 mmHg 52%
    16:00 +15°C° 0.8 mm 1 mps 588 mmHg 55%
    17:00 +13°C° 0.5 mm 1 mps 588 mmHg 63%
    18:00 +12°C° 0.5 mm 1 mps 588 mmHg 71%
    19:00 +10°C° 0.5 mm 0 mps 587 mmHg 79%
    20:00 +10°C° 0.5 mm 1 mps 587 mmHg 81%
    21:00 +9°C° 0.5 mm 1 mps 587 mmHg 83%
    22:00 +8°C° 0.5 mm 1 mps 586 mmHg 85%
    23:00 +8°C° 0.1 mm 1 mps 586 mmHg 85%

    Day after tomorrow, 28 May, Monday

    Time Temperature Precipitation Wind Pressure Humidity
    00:00 +7°C° 0.1 mm 1 mps 586 mmHg 85%
    01:00 +7°C° 0.1 mm 1 mps 586 mmHg 85%
    02:00 +6°C° 0 mm 1 mps 585 mmHg 85%
    03:00 +6°C° 0 mm 1 mps 585 mmHg 84%
    04:00 +6°C° 0 mm 1 mps 585 mmHg 84%
    05:00 +7°C° 0 mm 1 mps 586 mmHg 79%
    06:00 +9°C° 0 mm 1 mps 586 mmHg 74%
    07:00 +10°C° 0 mm 1 mps 587 mmHg 69%
    08:00 +12°C° 0.1 mm 1 mps 588 mmHg 62%
    09:00 +14°C° 0.1 mm 2 mps 589 mmHg 55%
    10:00 +15°C° 0.1 mm 2 mps 589 mmHg 49%
    11:00 +16°C° 0.2 mm 2 mps 589 mmHg 48%
    12:00 +16°C° 0.2 mm 2 mps 590 mmHg 47%
    13:00 +17°C° 0.2 mm 2 mps 590 mmHg 47%
    14:00 +16°C° 0.3 mm 2 mps 589 mmHg 49%
    15:00 +16°C° 0.3 mm 2 mps 589 mmHg 51%
    16:00 +16°C° 0.3 mm 2 mps 589 mmHg 53%
    17:00 +14°C° 0.2 mm 2 mps 588 mmHg 61%
    18:00 +13°C° 0.2 mm 2 mps 587 mmHg 69%
    19:00 +12°C° 0.2 mm 1 mps 587 mmHg 78%
    20:00 +10°C° 0.1 mm 1 mps 586 mmHg 83%
    21:00 +9°C° 0.1 mm 1 mps 586 mmHg 88%
    22:00 +7°C° 0.1 mm 1 mps 585 mmHg 93%
    23:00 +6°C° 0 mm 2 mps 585 mmHg 93%

    29 May, Tuesday

    Time Temperature Precipitation Wind Pressure Humidity
    00:00 +6°C° 0 mm 2 mps 585 mmHg 93%
    01:00 +6°C° 0 mm 2 mps 585 mmHg 93%
    02:00 +6°C° 0.1 mm 2 mps 585 mmHg 93%
    03:00 +6°C° 0.1 mm 2 mps 585 mmHg 92%
    04:00 +6°C° 0.1 mm 2 mps 585 mmHg 91%
    05:00 +8°C° 0 mm 1 mps 585 mmHg 86%
    06:00 +9°C° 0 mm 1 mps 585 mmHg 81%
    07:00 +10°C° 0 mm 1 mps 586 mmHg 77%
    08:00 +11°C° 0 mm 1 mps 587 mmHg 69%
    09:00 +13°C° 0 mm 1 mps 587 mmHg 62%
    10:00 +15°C° 0 mm 2 mps 588 mmHg 55%
    11:00 +15°C° 0.4 mm 2 mps 588 mmHg 55%
    12:00 +15°C° 0.4 mm 2 mps 588 mmHg 56%
    13:00 +16°C° 0.4 mm 2 mps 587 mmHg 56%
    14:00 +15°C° 1.1 mm 2 mps 587 mmHg 59%
    15:00 +15°C° 1.1 mm 2 mps 587 mmHg 61%
    16:00 +15°C° 1.1 mm 2 mps 586 mmHg 64%
    17:00 +14°C° 0.9 mm 2 mps 586 mmHg 70%
    18:00 +12°C° 0.9 mm 2 mps 585 mmHg 76%
    19:00 +11°C° 0.9 mm 1 mps 585 mmHg 83%
    20:00 +10°C° 0.3 mm 1 mps 584 mmHg 87%
    21:00 +9°C° 0.3 mm 1 mps 584 mmHg 91%
    22:00 +7°C° 0.3 mm 1 mps 584 mmHg 94%
    23:00 +7°C° 0 mm 1 mps 583 mmHg 94%

    30 May, Wednesday

    Time Temperature Precipitation Wind Pressure Humidity
    00:00 +7°C° 0 mm 1 mps 583 mmHg 94%
    01:00 +5°C° 0 mm 2 mps 583 mmHg 94%
    02:00 +5°C° 0 mm 2 mps 583 mmHg 93%
    03:00 +6°C° 0 mm 1 mps 582 mmHg 93%
    04:00 +5°C° 0 mm 1 mps 582 mmHg 92%
    05:00 +7°C° 0 mm 1 mps 583 mmHg 86%
    06:00 +8°C° 0 mm 1 mps 583 mmHg 80%
    07:00 +10°C° 0 mm 1 mps 584 mmHg 74%
    08:00 +12°C° 0.1 mm 1 mps 585 mmHg 66%
    09:00 +13°C° 0.1 mm 1 mps 586 mmHg 57%
    10:00 +15°C° 0.1 mm 1 mps 587 mmHg 49%
    11:00 +16°C° 0.5 mm 2 mps 586 mmHg 50%
    12:00 +16°C° 0.5 mm 2 mps 586 mmHg 52%
    13:00 +16°C° 0.5 mm 2 mps 586 mmHg 53%
    14:00 +16°C° 0.9 mm 2 mps 586 mmHg 56%
    15:00 +15°C° 0.9 mm 2 mps 585 mmHg 59%
    16:00 +15°C° 0.9 mm 2 mps 585 mmHg 62%
    17:00 +14°C° 0.9 mm 2 mps 585 mmHg 69%
    18:00 +12°C° 0.9 mm 2 mps 584 mmHg 76%
    19:00 +11°C° 0.9 mm 1 mps 584 mmHg 82%
    20:00 +10°C° 0.4 mm 1 mps 583 mmHg 86%
    21:00 +9°C° 0.4 mm 1 mps 583 mmHg 90%
    22:00 +7°C° 0.4 mm 1 mps 583 mmHg 93%
    23:00 +7°C° 0 mm 1 mps 582 mmHg 93%

    31 May, Thursday

    Time Temperature Precipitation Wind Pressure Humidity
    00:00 +6°C° 0 mm 1 mps 582 mmHg 93%
    01:00 +6°C° 0 mm 1 mps 582 mmHg 93%
    02:00 +6°C° 0 mm 1 mps 582 mmHg 93%
    03:00 +5°C° 0 mm 1 mps 582 mmHg 92%
    04:00 +5°C° 0 mm 1 mps 581 mmHg 91%
    05:00 +7°C° 0 mm 1 mps 582 mmHg 86%
    06:00 +8°C° 0 mm 1 mps 583 mmHg 80%
    07:00 +9°C° 0 mm 0 mps 584 mmHg 74%
    08:00 +12°C° 0.1 mm 1 mps 585 mmHg 66%
    09:00 +14°C° 0.1 mm 1 mps 586 mmHg 58%
    10:00 +16°C° 0.1 mm 1 mps 587 mmHg 50%
    11:00 +16°C° 0.2 mm 1 mps 587 mmHg 48%
    12:00 +18°C° 0.2 mm 1 mps 587 mmHg 45%
    13:00 +18°C° 0.2 mm 2 mps 587 mmHg 43%
    14:00 +17°C° 0.7 mm 2 mps 587 mmHg 46%
    15:00 +17°C° 0.7 mm 2 mps 586 mmHg 50%
    16:00 +16°C° 0.7 mm 2 mps 586 mmHg 54%
    17:00 +15°C° 0.7 mm 2 mps 585 mmHg 61%
    18:00 +13°C° 0.7 mm 1 mps 585 mmHg 68%
    19:00 +12°C° 0.7 mm 1 mps 585 mmHg 76%
    20:00 +11°C° 0.2 mm 1 mps 584 mmHg 81%
    21:00 +9°C° 0.2 mm 1 mps 584 mmHg 86%
    22:00 +8°C° 0.2 mm 1 mps 583 mmHg 91%
    23:00 +7°C° 0 mm 1 mps 583 mmHg 92%
    Show more